Time,TemperatureF,DewpointF,PressureIn,WindDirection,WindDirectionDegrees,WindSpeedMPH,WindSpeedGustMPH,Humidity,HourlyPrecipIn,Conditions,Clouds,dailyrainin,SoftwareType,DateUTC
2013-02-11 00:02:00,35.0,26.0,29.94,WNW,290,11.0,20.0,69,0.00,,,0.05,,2013-02-11 06:02:00,
2013-02-11 00:11:00,35.0,26.0,29.94,WNW,290,11.0,20.0,69,0.00,,,0.05,,2013-02-11 06:11:00,
2013-02-11 00:21:00,34.0,25.0,29.95,WNW,294,12.0,16.0,70,0.00,,,0.04,,2013-02-11 06:21:00,
2013-02-11 00:32:00,34.0,25.0,29.96,WNW,295,9.0,19.0,70,0.00,,,0.04,,2013-02-11 06:32:00,
2013-02-11 00:42:00,34.0,25.0,29.96,WNW,303,10.0,23.0,69,0.00,,,0.04,,2013-02-11 06:42:00,
2013-02-11 00:52:00,34.0,25.0,29.96,WNW,303,10.0,23.0,69,0.00,,,0.04,,2013-02-11 06:52:00,
2013-02-11 01:01:00,33.0,25.0,29.97,WNW,282,8.0,13.0,71,0.00,,,0.04,,2013-02-11 07:01:00,
2013-02-11 01:11:00,31.0,24.0,29.98,WNW,283,7.0,10.0,74,0.00,,,0.00,,2013-02-11 07:11:00,
2013-02-11 01:21:00,31.0,24.0,29.98,WNW,283,7.0,10.0,74,0.00,,,0.00,,2013-02-11 07:21:00,
2013-02-11 01:32:00,30.0,24.0,29.98,West,280,8.0,11.0,78,0.00,,,0.00,,2013-02-11 07:32:00,
2013-02-11 01:41:00,30.0,24.0,30.00,West,262,9.0,13.0,78,0.00,,,0.00,,2013-02-11 07:41:00,
2013-02-11 01:52:00,30.0,24.0,30.00,West,262,9.0,13.0,78,0.00,,,0.00,,2013-02-11 07:52:00,
2013-02-11 02:01:00,31.0,25.0,30.00,West,265,10.0,14.0,77,0.00,,,0.00,,2013-02-11 08:01:00,
2013-02-11 02:11:00,30.0,23.0,30.01,West,276,9.0,14.0,76,0.00,,,0.00,,2013-02-11 08:11:00,
2013-02-11 02:21:00,30.0,23.0,30.01,West,276,9.0,14.0,76,0.00,,,0.00,,2013-02-11 08:21:00,
2013-02-11 02:31:00,29.0,23.0,30.02,West,267,8.0,11.0,79,0.00,,,0.00,,2013-02-11 08:31:00,
2013-02-11 02:42:00,28.0,23.0,30.02,WNW,287,8.0,11.0,80,0.00,,,0.00,,2013-02-11 08:42:00,
2013-02-11 02:52:00,28.0,23.0,30.02,WNW,287,8.0,11.0,80,0.00,,,0.00,,2013-02-11 08:52:00,
2013-02-11 03:01:00,28.0,22.0,30.03,West,263,9.0,12.0,79,0.00,,,0.00,,2013-02-11 09:01:00,
2013-02-11 03:12:00,28.0,22.0,30.03,West,263,9.0,12.0,79,0.00,,,0.00,,2013-02-11 09:12:00,
2013-02-11 03:21:00,28.0,22.0,30.04,WSW,252,10.0,14.0,79,0.00,,,0.00,,2013-02-11 09:21:00,
2013-02-11 03:31:00,27.0,23.0,30.04,WSW,250,10.0,12.0,83,0.00,,,0.00,,2013-02-11 09:31:00,
2013-02-11 03:41:00,27.0,23.0,30.04,WSW,250,10.0,12.0,83,0.00,,,0.00,,2013-02-11 09:41:00,
2013-02-11 03:52:00,27.0,22.0,30.05,West,267,10.0,13.0,82,0.00,,,0.00,,2013-02-11 09:52:00,
2013-02-11 04:01:00,27.0,22.0,30.05,West,265,11.0,14.0,82,0.00,,,0.00,,2013-02-11 10:01:00,
2013-02-11 04:11:00,27.0,22.0,30.05,West,265,11.0,14.0,82,0.00,,,0.00,,2013-02-11 10:11:00,
2013-02-11 04:21:00,27.0,22.0,30.05,West,277,8.0,14.0,82,0.00,,,0.00,,2013-02-11 10:21:00,
2013-02-11 04:31:00,28.0,23.0,30.06,WNW,284,8.0,12.0,80,0.00,,,0.00,,2013-02-11 10:31:00,
2013-02-11 04:42:00,28.0,23.0,30.06,WNW,284,8.0,12.0,80,0.00,,,0.00,,2013-02-11 10:42:00,
2013-02-11 04:52:00,27.0,22.0,30.06,West,269,9.0,13.0,81,0.00,,,0.00,,2013-02-11 10:52:00,
2013-02-11 05:01:00,27.0,22.0,30.06,WNW,289,7.0,13.0,80,0.00,,,0.00,,2013-02-11 11:01:00,
2013-02-11 05:11:00,27.0,22.0,30.06,WNW,289,7.0,13.0,80,0.00,,,0.00,,2013-02-11 11:11:00,
2013-02-11 05:22:00,28.0,22.0,30.06,NW,306,7.0,12.0,78,0.00,,,0.00,,2013-02-11 11:22:00,
2013-02-11 05:32:00,28.0,22.0,30.07,WNW,286,8.0,11.0,78,0.00,,,0.00,,2013-02-11 11:32:00,
2013-02-11 05:42:00,27.0,21.0,30.07,WNW,290,7.0,12.0,78,0.00,,,0.00,,2013-02-11 11:42:00,
2013-02-11 05:52:00,27.0,21.0,30.07,WNW,290,7.0,12.0,78,0.00,,,0.00,,2013-02-11 11:52:00,
2013-02-11 06:03:00,27.0,21.0,30.07,WNW,297,7.0,12.0,77,0.00,,,0.00,,2013-02-11 12:03:00,
2013-02-11 06:12:00,27.0,21.0,30.07,WNW,297,7.0,12.0,77,0.00,,,0.00,,2013-02-11 12:12:00,
2013-02-11 06:22:00,27.0,21.0,30.09,West,278,7.0,11.0,78,0.00,,,0.00,,2013-02-11 12:22:00,
2013-02-11 06:32:00,25.0,20.0,30.09,West,273,8.0,11.0,81,0.00,,,0.00,,2013-02-11 12:32:00,
2013-02-11 06:42:00,25.0,20.0,30.10,West,268,8.0,11.0,82,0.00,,,0.00,,2013-02-11 12:42:00,
2013-02-11 06:52:00,25.0,20.0,30.10,West,268,8.0,11.0,82,0.00,,,0.00,,2013-02-11 12:52:00,
2013-02-11 07:01:00,24.0,19.0,30.11,West,266,7.0,10.0,82,0.00,,,0.00,,2013-02-11 13:01:00,
2013-02-11 07:11:00,24.0,20.0,30.11,West,279,6.0,9.0,84,0.00,,,0.00,,2013-02-11 13:11:00,
2013-02-11 07:22:00,24.0,20.0,30.11,West,279,6.0,9.0,84,0.00,,,0.00,,2013-02-11 13:22:00,
2013-02-11 07:32:00,26.0,21.0,30.11,NW,312,8.0,14.0,80,0.00,,,0.00,,2013-02-11 13:32:00,
2013-02-11 07:42:00,26.0,21.0,30.11,NW,312,8.0,14.0,80,0.00,,,0.00,,2013-02-11 13:42:00,
2013-02-11 07:52:00,26.0,20.0,30.12,NW,322,6.0,13.0,78,0.00,,,0.00,,2013-02-11 13:52:00,
2013-02-11 08:01:00,26.0,20.0,30.13,West,279,6.0,10.0,78,0.00,,,0.00,,2013-02-11 14:01:00,
2013-02-11 08:11:00,26.0,20.0,30.13,West,279,6.0,10.0,78,0.00,,,0.00,,2013-02-11 14:11:00,
2013-02-11 08:22:00,26.0,21.0,30.14,West,269,7.0,9.0,80,0.00,,,0.00,,2013-02-11 14:22:00,
2013-02-11 08:32:00,27.0,22.0,30.15,WNW,286,6.0,8.0,80,0.00,,,0.00,,2013-02-11 14:32:00,
2013-02-11 08:42:00,28.0,22.0,30.15,WNW,294,6.0,10.0,77,0.00,,,0.00,,2013-02-11 14:42:00,
2013-02-11 08:53:00,28.0,22.0,30.15,WNW,294,6.0,10.0,77,0.00,,,0.00,,2013-02-11 14:53:00,
2013-02-11 09:02:00,29.0,22.0,30.15,NW,304,9.0,13.0,74,0.00,,,0.00,,2013-02-11 15:02:00,
2013-02-11 09:11:00,29.0,22.0,30.15,NW,304,9.0,13.0,74,0.00,,,0.00,,2013-02-11 15:11:00,
2013-02-11 09:22:00,30.0,22.0,30.16,West,279,9.0,15.0,72,0.00,,,0.00,,2013-02-11 15:22:00,
2013-02-11 09:32:00,30.0,21.0,30.16,NNW,331,12.0,19.0,69,0.00,,,0.00,,2013-02-11 15:32:00,
2013-02-11 09:42:00,31.0,21.0,30.16,West,263,10.0,18.0,67,0.00,,,0.00,,2013-02-11 15:42:00,
2013-02-11 09:52:00,31.0,21.0,30.16,West,263,10.0,18.0,67,0.00,,,0.00,,2013-02-11 15:52:00,
2013-02-11 10:02:00,32.0,22.0,30.17,NNW,341,6.0,13.0,66,0.00,,,0.00,,2013-02-11 16:02:00,
2013-02-11 10:11:00,32.0,22.0,30.17,NNW,341,6.0,13.0,66,0.00,,,0.00,,2013-02-11 16:11:00,
2013-02-11 10:22:00,32.0,22.0,30.16,NW,306,10.0,18.0,65,0.00,,,0.00,,2013-02-11 16:22:00,
2013-02-11 10:32:00,33.0,22.0,30.18,WNW,284,6.0,13.0,64,0.00,,,0.00,,2013-02-11 16:32:00,
2013-02-11 10:42:00,34.0,22.0,30.18,NW,315,6.0,15.0,62,0.00,,,0.00,,2013-02-11 16:42:00,
2013-02-11 10:52:00,34.0,22.0,30.18,NW,315,6.0,15.0,62,0.00,,,0.00,,2013-02-11 16:52:00,
2013-02-11 11:01:00,35.0,23.0,30.19,NW,323,7.0,12.0,61,0.00,,,0.00,,2013-02-11 17:01:00,
2013-02-11 11:11:00,35.0,23.0,30.19,NW,323,7.0,12.0,61,0.00,,,0.00,,2013-02-11 17:11:00,
2013-02-11 11:21:00,35.0,22.0,30.19,NNW,327,8.0,15.0,59,0.00,,,0.00,,2013-02-11 17:21:00,
2013-02-11 11:32:00,35.0,22.0,30.19,NNW,333,8.0,15.0,58,0.00,,,0.00,,2013-02-11 17:32:00,
2013-02-11 11:42:00,35.0,22.0,30.19,NNW,333,8.0,15.0,58,0.00,,,0.00,,2013-02-11 17:42:00,
2013-02-11 11:53:00,36.0,22.0,30.19,WNW,298,10.0,14.0,56,0.00,,,0.00,,2013-02-11 17:53:00,
2013-02-11 12:01:00,37.0,23.0,30.19,NNW,342,5.0,13.0,56,0.00,,,0.00,,2013-02-11 18:01:00,
2013-02-11 12:11:00,37.0,23.0,30.19,NNW,342,5.0,13.0,56,0.00,,,0.00,,2013-02-11 18:11:00,
2013-02-11 12:21:00,37.0,21.0,30.19,NW,324,10.0,14.0,53,0.00,,,0.00,,2013-02-11 18:21:00,
2013-02-11 12:32:00,38.0,23.0,30.18,NNW,327,8.0,15.0,54,0.00,,,0.00,,2013-02-11 18:32:00,
2013-02-11 12:42:00,38.0,22.0,30.19,WNW,286,10.0,19.0,51,0.00,,,0.00,,2013-02-11 18:42:00,
2013-02-11 12:53:00,38.0,22.0,30.19,WNW,286,10.0,19.0,51,0.00,,,0.00,,2013-02-11 18:53:00,
2013-02-11 13:02:00,40.0,22.0,30.18,West,261,10.0,14.0,49,0.00,,,0.00,,2013-02-11 19:02:00,
2013-02-11 13:11:00,40.0,22.0,30.17,West,275,8.0,15.0,48,0.00,,,0.00,,2013-02-11 19:11:00,
2013-02-11 13:21:00,40.0,22.0,30.17,West,275,8.0,15.0,48,0.00,,,0.00,,2013-02-11 19:21:00,
2013-02-11 13:32:00,40.0,22.0,30.16,WNW,296,8.0,18.0,48,0.00,,,0.00,,2013-02-11 19:32:00,
2013-02-11 13:41:00,40.0,22.0,30.16,WNW,296,8.0,18.0,48,0.00,,,0.00,,2013-02-11 19:41:00,
2013-02-11 13:51:00,41.0,21.0,30.17,NW,309,10.0,19.0,45,0.00,,,0.00,,2013-02-11 19:51:00,
2013-02-11 14:01:00,41.0,21.0,30.16,West,276,9.0,16.0,45,0.00,,,0.00,,2013-02-11 20:01:00,
2013-02-11 14:11:00,42.0,21.0,30.15,WNW,298,8.0,12.0,43,0.00,,,0.00,,2013-02-11 20:11:00,
2013-02-11 14:21:00,42.0,21.0,30.15,WNW,298,8.0,12.0,43,0.00,,,0.00,,2013-02-11 20:21:00,
2013-02-11 14:32:00,41.0,20.0,30.14,WNW,284,10.0,15.0,43,0.00,,,0.00,,2013-02-11 20:32:00,
2013-02-11 14:42:00,42.0,21.0,30.14,NW,321,7.0,15.0,42,0.00,,,0.00,,2013-02-11 20:42:00,
2013-02-11 14:52:00,42.0,21.0,30.14,NW,321,7.0,15.0,42,0.00,,,0.00,,2013-02-11 20:52:00,
2013-02-11 15:02:00,43.0,21.0,30.13,WNW,286,8.0,11.0,41,0.00,,,0.00,,2013-02-11 21:02:00,
2013-02-11 15:11:00,42.0,20.0,30.13,WNW,302,8.0,13.0,41,0.00,,,0.00,,2013-02-11 21:11:00,
2013-02-11 15:21:00,42.0,20.0,30.13,WNW,302,8.0,13.0,41,0.00,,,0.00,,2013-02-11 21:21:00,
2013-02-11 15:32:00,42.0,21.0,30.12,WNW,285,10.0,18.0,42,0.00,,,0.00,,2013-02-11 21:32:00,
2013-02-11 15:42:00,42.0,21.0,30.12,WNW,285,10.0,18.0,42,0.00,,,0.00,,2013-02-11 21:42:00,
2013-02-11 15:52:00,43.0,22.0,30.12,NW,314,6.0,13.0,42,0.00,,,0.00,,2013-02-11 21:52:00,
2013-02-11 16:01:00,43.0,21.0,30.12,West,271,8.0,12.0,41,0.00,,,0.00,,2013-02-11 22:01:00,
2013-02-11 16:11:00,42.0,21.0,30.12,NW,324,7.0,12.0,42,0.00,,,0.00,,2013-02-11 22:11:00,
2013-02-11 16:22:00,42.0,21.0,30.12,NW,324,7.0,12.0,42,0.00,,,0.00,,2013-02-11 22:22:00,
2013-02-11 16:32:00,42.0,21.0,30.12,NNW,336,7.0,11.0,43,0.00,,,0.00,,2013-02-11 22:32:00,
2013-02-11 16:42:00,42.0,21.0,30.12,NNW,336,7.0,11.0,43,0.00,,,0.00,,2013-02-11 22:42:00,
2013-02-11 16:52:00,42.0,21.0,30.12,North,355,6.0,9.0,42,0.00,,,0.00,,2013-02-11 22:52:00,
2013-02-11 17:01:00,41.0,20.0,30.11,NW,305,6.0,11.0,43,0.00,,,0.00,,2013-02-11 23:01:00,
2013-02-11 17:11:00,41.0,20.0,30.11,NW,305,6.0,11.0,43,0.00,,,0.00,,2013-02-11 23:11:00,
2013-02-11 17:21:00,41.0,21.0,30.11,NW,315,4.0,10.0,44,0.00,,,0.00,,2013-02-11 23:21:00,
2013-02-11 17:32:00,41.0,21.0,30.12,NW,314,4.0,8.0,44,0.00,,,0.00,,2013-02-11 23:32:00,
2013-02-11 17:42:00,41.0,21.0,30.12,NW,314,4.0,8.0,44,0.00,,,0.00,,2013-02-11 23:42:00,
2013-02-11 17:52:00,39.0,19.0,30.13,WNW,298,3.0,7.0,45,0.00,,,0.00,,2013-02-11 23:52:00,
2013-02-11 18:01:00,38.0,20.0,30.13,WNW,294,1.0,5.0,47,0.00,,,0.00,,2013-02-12 00:01:00,
2013-02-11 18:11:00,38.0,20.0,30.13,WNW,294,1.0,5.0,47,0.00,,,0.00,,2013-02-12 00:11:00,
2013-02-11 18:22:00,37.0,19.0,30.12,NW,309,0.0,5.0,48,0.00,,,0.00,,2013-02-12 00:22:00,
2013-02-11 18:32:00,37.0,20.0,30.13,NW,304,0.0,2.0,49,0.00,,,0.00,,2013-02-12 00:32:00,
2013-02-11 18:42:00,37.0,20.0,30.13,NW,304,0.0,2.0,49,0.00,,,0.00,,2013-02-12 00:42:00,
2013-02-11 18:52:00,35.0,19.0,30.13,NW,304,0.0,1.0,51,0.00,,,0.00,,2013-02-12 00:52:00,
2013-02-11 19:02:00,34.0,19.0,30.14,WSW,250,3.0,3.0,53,0.00,,,0.00,,2013-02-12 01:02:00,
2013-02-11 19:11:00,34.0,19.0,30.14,WSW,250,3.0,3.0,53,0.00,,,0.00,,2013-02-12 01:11:00,
2013-02-11 19:21:00,32.0,19.0,30.14,WSW,250,0.0,0.0,58,0.00,,,0.00,,2013-02-12 01:21:00,
2013-02-11 19:32:00,31.0,19.0,30.14,WSW,252,0.0,0.0,61,0.00,,,0.00,,2013-02-12 01:32:00,
2013-02-11 19:42:00,29.0,18.0,30.14,WSW,251,1.0,4.0,64,0.00,,,0.00,,2013-02-12 01:42:00,
2013-02-11 19:52:00,29.0,18.0,30.14,WSW,251,1.0,4.0,64,0.00,,,0.00,,2013-02-12 01:52:00,
2013-02-11 20:01:00,31.0,20.0,30.14,WSW,251,1.0,2.0,62,0.00,,,0.00,,2013-02-12 02:01:00,
2013-02-11 20:11:00,29.0,18.0,30.15,WSW,252,1.0,2.0,62,0.00,,,0.00,,2013-02-12 02:11:00,
2013-02-11 20:21:00,29.0,18.0,30.15,WSW,252,1.0,2.0,62,0.00,,,0.00,,2013-02-12 02:21:00,
2013-02-11 20:31:00,25.0,18.0,30.15,WSW,252,1.0,4.0,73,0.00,,,0.00,,2013-02-12 02:31:00,
2013-02-11 20:52:00,27.0,18.0,30.16,WSW,254,2.0,4.0,68,0.00,,,0.00,,2013-02-12 02:52:00,
2013-02-11 21:02:00,27.0,19.0,30.16,WSW,245,0.0,0.0,71,0.00,,,0.00,,2013-02-12 03:02:00,
2013-02-11 21:11:00,27.0,19.0,30.17,WSW,239,0.0,0.0,71,0.00,,,0.00,,2013-02-12 03:11:00,
2013-02-11 21:21:00,27.0,19.0,30.17,WSW,239,0.0,0.0,71,0.00,,,0.00,,2013-02-12 03:21:00,
2013-02-11 21:31:00,24.0,17.0,30.17,WSW,244,2.0,4.0,75,0.00,,,0.00,,2013-02-12 03:31:00,
2013-02-11 21:41:00,24.0,18.0,30.17,WSW,244,2.0,4.0,77,0.00,,,0.00,,2013-02-12 03:41:00,
2013-02-11 21:52:00,24.0,18.0,30.17,WSW,244,2.0,4.0,77,0.00,,,0.00,,2013-02-12 03:52:00,
2013-02-11 22:01:00,21.0,16.0,30.18,WSW,244,1.0,2.0,80,0.00,,,0.00,,2013-02-12 04:01:00,
2013-02-11 22:21:00,22.0,18.0,30.19,WSW,246,0.0,0.0,84,0.00,,,0.00,,2013-02-12 04:21:00,
2013-02-11 22:31:00,22.0,16.0,30.18,WSW,247,0.0,0.0,78,0.00,,,0.00,,2013-02-12 04:31:00,
2013-02-11 22:41:00,22.0,16.0,30.18,WSW,247,0.0,0.0,78,0.00,,,0.00,,2013-02-12 04:41:00,
2013-02-11 22:52:00,19.0,15.0,30.18,WSW,248,0.0,0.0,84,0.00,,,0.00,,2013-02-12 04:52:00,
2013-02-11 23:01:00,19.0,16.0,30.18,WSW,248,0.0,0.0,86,0.00,,,0.00,,2013-02-12 05:01:00,
2013-02-11 23:11:00,19.0,15.0,30.17,WSW,248,0.0,0.0,85,0.00,,,0.00,,2013-02-12 05:11:00,
2013-02-11 23:21:00,19.0,15.0,30.17,WSW,248,0.0,0.0,85,0.00,,,0.00,,2013-02-12 05:21:00,
2013-02-11 23:31:00,22.0,17.0,30.17,SW,233,0.0,6.0,80,0.00,,,0.00,,2013-02-12 05:31:00,
2013-02-11 23:42:00,22.0,17.0,30.17,SW,233,0.0,6.0,80,0.00,,,0.00,,2013-02-12 05:42:00,
2013-02-11 23:52:00,18.0,14.0,30.17,SW,234,0.0,0.0,84,0.00,,,0.00,,2013-02-12 05:52:00,